Location: Unspecified
(41.5516°N, 88.1098°W)
Time: 10:11:51
(UTC-06:00)

Resurs 1-4 Rocket - Visible Passes

Search period start: 28 January 2015 00:00
Search period end: 07 February 2015 00:00
Orbit: 801 x 814 km, 98.4° (Epoch: 26 January)

Date Brightness Start Highest point End Pass type
(mag) Time Alt. Az. Time Alt. Az. Time Alt. Az.
02 Feb 4.6 04:10:12 10° N 04:10:14 10° N 04:10:14 10° N visible
05 Feb 4.4 04:37:05 10° N 04:37:26 12° N 04:37:26 12° N visible
06 Feb 4.4 04:12:17 10° N 04:12:49 13° N 04:12:49 13° N visible
